Location: Spring Creek
(38.2870°N, 100.2160°W)
Time: 09:21:50
(UTC+00:00)

Cosmos 1763 Rocket - Pass Details

Date: 08 May 2021
Orbit: 733 x 780 km, 74.0° (Epoch: 21 June)

Event Time Altitude Azimuth Distance (km) Brightness Sun altitude
Rises 01:58:07 0° 336° (NNW) 3,170 7.6 -4.4°
Reaches altitude 10° 02:00:30 10° 333° (NNW) 2,247 6.9 -4.8°
Maximum altitude 02:05:27 55° 256° (WSW) 885 4.2 -5.7°
Drops below altitude 10° 02:10:25 10° 179° (S) 2,256 5.7 -6.5°
Sets 02:12:49 0° 175° (S) 3,183 6.4 -6.9°
